Simultaneous Nadir Overpasses (SNOs) Predictions

Prediction of SNOs between AQUA and NOAA-19 Satellite Orbit:

Table of predicted SNOs for the next 14.0 days since TLE Epoch: 7/29/2016
Index Date (AQUA) Time (AQUA) Lat,Lon (AQUA) SZA (AQUA ) Date (NOAA-19) Time (NOAA-19) Lat,Lon (NOAA-19) SZA (NOAA-19 ) Distance(km) Time Diff (sec)
1 07/30/2016 00:12:24 -80.88, -42.54 115.24 07/30/2016 00:12:18 -80.88, -42.46 115.25 1.43 6
2 08/01/2016 05:46:07 80.88, 54.02 65.31 08/01/2016 05:46:20 80.88, 53.97 65.31 0.89 13
3 08/03/2016 10:30:25 80.90, -17.26 65.91 08/03/2016 10:29:22 80.90, -17.26 65.93 0.22 63
4 08/03/2016 11:19:51 -80.88, 150.64 114.13 08/03/2016 11:20:21 -80.87, 150.82 114.17 3.21 30
5 08/05/2016 16:04:09 -80.89, 79.36 113.52 08/05/2016 16:03:24 -80.89, 79.43 113.50 1.17 45
6 08/05/2016 16:53:35 80.89,-112.91 66.48 08/05/2016 16:54:23 80.88,-112.92 66.46 0.52 48
7 08/07/2016 21:37:53 80.91, 175.76 67.13 08/07/2016 21:37:25 80.90, 175.79 67.13 1.20 28
8 08/07/2016 22:27:19 -80.88, -16.29 112.92 08/07/2016 22:28:26 -80.88, -16.40 112.94 1.97 67
9 08/10/2016 03:11:37 -80.90, -87.63 112.25 08/10/2016 03:11:28 -80.89, -87.50 112.27 2.43 9




NCC Satellite Simultaneous Nadir Overpasses (SNOs) Prediction Service
